Skip Page Navigation
NASA JPL Caltech
NASA Logo - Jet Propulsion Laboratory + View the NASA Portal
+ Center for Near-Earth Object Studies
JPL Home Earth Solar System Stars & Galaxies Technology
JPL Solar System Dynamics
BODIES ORBITS EPHEMERIDES TOOLS PHYSICAL DATA DISCOVERY FAQ SITE MAP
IMPORTANT: The SSD Announcement email list is now available. Major changes are coming in the near future, including possible hostname and/or URL changes. To be notified of such changes, subscribe to this email list.

Please visit this page for more details.


JPL Small-Body Database Browser
Search: [ help ]  
59793 Clapies (1999 OD)
Classification: Main-belt Asteroid          SPK-ID: 2059793
Ephemeris | Orbit Diagram | Orbital Elements | Mission Design | Physical Parameters | Discovery Circumstances ]

[ show orbit diagram ]
Orbital Elements at Epoch 2458600.5 (2019-Apr-27.0) TDB
Reference: JPL 23 (heliocentric ecliptic J2000)
 Element Value Uncertainty (1-sigma)   Units 
e .03572939124326643 5.0088e-08  
a 3.065648279126313 2.3191e-08 au
q 2.956114532347163 1.582e-07 au
i 10.97426063178533 5.5407e-06 deg
node 131.6926623568084 2.4287e-05 deg
peri 183.7783277541054 6.9304e-05 deg
M 238.9393144251975 6.4369e-05 deg
tp 2459259.799195015214
(2021-Feb-14.29919502)
0.00035054 TDB
period 1960.568033119402
5.37
2.2247e-05
6.091e-08
d
yr
n .1836202538848981 2.0836e-09 deg/d
Q 3.175182025905464 2.402e-08 au
  Orbit Determination Parameters
   # obs. used (total)      833  
   data-arc span      7691 days (21.06 yr)  
   first obs. used      1998-04-18  
   last obs. used      2019-05-09  
   planetary ephem.      DE431  
   SB-pert. ephem.      SB431-N16  
   condition code      0  
   norm. resid. RMS      .52689  
   source      ORB  
   producer      Otto Matic  
   solution date      2019-May-30 05:15:47  

Additional Information
 Earth MOID = 1.94134 au 
 Jupiter MOID = 2.02934 au 
 T_jup = 3.203 
[ show covariance matrix ]

Ephemeris | Orbit Diagram | Orbital Elements | Mission Design | Physical Parameters | Discovery Circumstances ]

Physical Parameter Table
Parameter Symbol Value Units Sigma Reference Notes
absolute magnitude H 14.3   n/a MPO347918  
diameter diameter 5.295 km 0.312 urn:nasa:pds:neowise_diameters_albedos::2.0[mainbelt] (http://adsabs.harvard.edu/abs/2011ApJ...741...68M)  
geometric albedo albedo 0.083   0.013 urn:nasa:pds:neowise_diameters_albedos::2.0[mainbelt] (http://adsabs.harvard.edu/abs/2011ApJ...741...68M)  

59793 Clapiès           Discovered 1999 July 16 at Pises.
French mathematician and cartographer Jean de Clapiès (1670-1740) was involved with Plantade in the observations of the 1706 total solar eclipse from Montpellier's Babote Tower.
NOTE: some special characters may not display properly (any characters within {} are an attempt to place the proper accent above a character)
Reference: 20050523/MPCPages.arcLast Updated: 2005-07-21

Alternate Designations
 1999 OD = 2000 WC191 
Ephemeris | Orbit Diagram | Orbital Elements | Mission Design | Physical Parameters | Discovery Circumstances ]
ABOUT SSD CREDITS/AWARDS PRIVACY/COPYRIGHT GLOSSARY LINKS
FirstGov
(server date/time)  
NASA Home Page
Site Manager:   Ryan S. Park
Webmaster  Alan B. Chamberlin